1484481600.67,38686,4.88,72304.8,-8.23,-12.71,-12.79,0,*52
1484481601.94,38687,4.88,72302.8,-8.21,-12.71,-12.79,0,*51
1484481603.2,38688,4.88,72306.0,-8.21,-12.61,-12.79,0,*5F
1484481604.49,38689,4.88,72310.0,-8.23,-12.61,-12.71,0,*54
1484481605.78,38690,4.88,72308.8,-8.23,-12.61,-12.71,0,*5C
1484481607.04,38691,4.88,72308.5,-8.25,-12.65,-12.71,0,*5F
1484481608.3,38692,4.88,72304.0,-8.23,-12.35,-12.47,0,*5A
1484481609.53,38693,4.88,72306.3,-8.23,-12.39,-12.47,0,*57
1484481610.8,38694,4.88,72304.5,-8.23,-12.35,-12.47,0,*5C
1484481612.03,38695,4.88,72306.0,-8.23,-12.39,-12.47,0,*51
1484481613.27,38696,4.88,72306.8,-8.25,-12.43,-12.53,0,*5C
1484481614.5,38697,4.88,72306.5,-8.25,-12.43,-12.53,0,*5D
1484481615.73,38698,4.88,72310.3,-8.25,-12.43,-12.53,0,*52
1484481617.0,38699,4.88,72310.0,-8.25,-12.57,-12.75,0,*52
1484481618.25,38700,4.88,72306.8,-8.27,-12.83,-12.97,0,*54
1484481619.48,38701,4.88,72308.8,-8.25,-12.83,-12.89,0,*58
1484481620.72,38702,4.88,72306.8,-8.25,-12.75,-12.89,0,*52
1484481621.95,38703,4.88,72304.0,-8.25,-12.83,-12.89,0,*5A
1484481623.16,38704,4.88,72310.5,-8.25,-12.89,-12.97,0,*58
1484481624.44,38705,4.88,72308.5,-8.27,-12.83,-13.01,0,*5F
1484481625.73,38706,4.88,72306.8,-8.27,-12.71,-12.71,0,*57
1484481626.99,38707,4.88,72306.3,-8.25,-12.71,-12.71,0,*54
1484481628.26,38708,4.88,72304.3,-8.25,-12.53,-12.71,0,*5B
1484481629.49,38709,4.88,72306.8,-8.27,-12.89,-12.97,0,*57
1484481630.74,38710,4.88,72308.3,-8.27,-13.15,-13.37,0,*50
1484481631.97,38711,4.88,72308.8,-8.27,-13.43,-13.55,0,*56
1484481633.23,38712,4.88,72306.0,-8.27,-13.73,-13.87,0,*59
1484481634.46,38713,4.88,72306.5,-8.27,-13.69,-13.73,0,*58
1484481635.69,38714,4.88,72306.3,-8.29,-13.61,-13.65,0,*5E
1484481636.92,38715,4.88,72308.5,-8.29,-13.33,-13.43,0,*5C
1484481638.19,38716,4.88,72306.8,-8.29,-13.29,-13.33,0,*53
1484481639.39,38717,4.88,72306.0,-8.33,-13.07,-13.15,0,*51
1484481640.62,38718,4.88,72310.5,-8.33,-12.89,-13.01,0,*5C
1484481641.86,38719,4.88,72310.5,-8.29,-12.79,-12.89,0,*58
1484481643.12,38720,4.88,72308.0,-8.33,-12.71,-12.75,0,*52
1484481644.39,38721,4.88,72310.3,-8.33,-12.71,-12.75,0,*53
1484481645.65,38722,4.88,72308.3,-8.29,-12.61,-12.71,0,*5E
1484481646.89,38723,4.88,72306.5,-8.29,-12.75,-12.93,0,*56
1484481648.13,38724,4.94,72312.5,-8.33,-12.79,-12.89,0,*5D
1484481649.37,38725,4.88,72304.5,-8.29,-12.75,-12.89,0,*5B
1484481650.61,38726,4.88,72304.8,-8.29,-12.79,-12.89,0,*54
1484481651.88,38727,4.88,72302.8,-8.33,-12.57,-12.71,0,*55
1484481653.14,38728,4.88,72298.8,-8.33,-12.57,-12.71,0,*5A
1484481654.41,38729,4.88,72300.5,-8.33,-12.75,-12.71,0,*5B
1484481655.65,38730,4.88,72304.3,-8.33,-12.75,-12.89,0,*54
1484481656.89,38731,4.88,72306.0,-8.33,-12.79,-12.93,0,*52
1484481658.15,38732,4.88,72300.5,-8.33,-12.75,-12.79,0,*59
1484481659.42,38733,4.88,72302.3,-8.33,-12.75,-12.79,0,*58
1484481660.68,38734,4.88,72302.8,-8.35,-12.79,-12.93,0,*51
1484481661.96,38735,4.88,72304.5,-8.35,-12.83,-12.83,0,*54
1484481663.22,38736,4.88,72306.8,-8.35,-12.79,-12.97,0,*57
1484481664.48,38737,4.88,72304.8,-8.35,-12.83,-12.97,0,*53
1484481665.72,38738,4.88,72308.3,-8.35,-13.07,-13.19,0,*56
1484481666.96,38739,4.88,72306.8,-8.33,-13.19,-13.33,0,*56
1484481668.22,38740,4.88,72310.0,-8.35,-13.23,-13.33,0,*57
1484481669.47,38741,4.88,72308.0,-8.35,-13.33,-13.47,0,*54
1484481670.7,38742,4.94,72312.5,-8.37,-13.33,-13.47,0,*55
1484481671.95,38743,4.88,72306.3,-8.37,-13.33,-13.37,0,*53
1484481673.18,38744,4.88,72308.3,-8.37,-13.33,-13.47,0,*53
1484481674.44,38745,4.88,72308.8,-8.37,-13.33,-13.37,0,*55
1484481675.67,38746,4.88,72310.5,-8.37,-13.19,-13.33,0,*5A
1484481676.9,38747,4.88,72306.3,-8.39,-13.15,-13.23,0,*58
1484481678.13,38748,4.88,72308.8,-8.39,-13.11,-13.15,0,*56
1484481679.36,38749,4.88,72308.3,-8.39,-12.97,-13.11,0,*5C
1484481680.62,38750,4.88,72308.3,-8.39,-12.89,-13.01,0,*5A
1484481681.87,38751,4.88,72308.5,-8.39,-12.83,-12.97,0,*5F
1484481683.13,38752,4.88,72308.3,-8.39,-12.79,-12.97,0,*59
1484481684.42,38753,4.88,72310.0,-8.39,-12.79,-12.83,0,*5D
1484481685.7,38754,4.88,72310.8,-8.39,-12.79,-12.83,0,*5A
1484481686.99,38755,4.88,72312.0,-8.39,-12.71,-12.71,0,*5E
1484481688.28,38756,4.88,72308.3,-8.39,-12.65,-12.71,0,*58
1484481689.56,38757,4.88,72310.8,-8.39,-12.53,-12.65,0,*59
1484481690.79,38758,4.88,72308.5,-8.41,-12.39,-12.53,0,*50
1484481692.05,38759,4.88,72310.8,-8.39,-12.43,-12.53,0,*53
1484481693.28,38760,4.88,72308.3,-8.39,-12.39,-12.43,0,*55
1484481694.54,38761,4.88,72310.0,-8.39,-12.39,-12.53,0,*55
1484481695.8,38762,4.88,72308.3,-8.39,-12.43,-12.53,0,*5B
1484481697.08,38763,4.88,72310.5,-8.39,-12.53,-12.65,0,*5E
1484481698.36,38764,4.88,72312.3,-8.39,-12.65,-12.65,0,*5C
1484481699.62,38765,4.88,72310.5,-8.37,-12.65,-12.75,0,*52
1484481700.85,38766,4.88,72310.8,-8.39,-13.23,-13.43,0,*58
1484481702.11,38767,4.88,72310.0,-8.39,-13.37,-13.55,0,*5B
1484481703.32,38768,4.88,72310.5,-8.41,-13.65,-13.73,0,*58
1484481704.57,38769,4.88,72310.0,-8.39,-13.69,-13.83,0,*55
1484481705.79,38770,4.88,72306.3,-8.39,-13.65,-13.69,0,*55
1484481707.0,38771,4.88,72310.8,-8.41,-13.43,-13.51,0,*54
1484481708.21,38772,4.88,72312.8,-8.41,-13.43,-13.51,0,*57
1484481709.42,38773,4.88,72310.3,-8.41,-13.43,-13.51,0,*56
1484481710.66,38774,4.88,72310.5,-8.41,-13.23,-13.37,0,*57
1484481711.88,38775,4.88,72310.8,-8.41,-13.15,-13.29,0,*5C
1484481713.09,38776,4.88,72314.5,-8.41,-13.11,-13.23,0,*51
1484481714.32,38777,4.94,72314.8,-8.41,-12.97,-13.01,0,*5F
1484481715.58,38778,4.88,72314.3,-8.43,-12.93,-13.01,0,*56
1484481716.81,38779,4.88,72308.5,-8.43,-12.93,-13.07,0,*51
1484481718.04,38780,4.88,72312.8,-8.43,-12.89,-12.93,0,*50
1484481719.3,38781,4.88,72314.3,-8.43,-12.75,-12.89,0,*59
1484481720.57,38782,4.88,72312.5,-8.41,-12.57,-12.71,0,*5F
1484481721.83,38783,4.88,72314.3,-8.41,-12.57,-12.57,0,*5A
1484481723.09,38784,4.88,72314.0,-8.41,-12.53,-12.53,0,*5D
1484481724.3,38785,4.88,72310.8,-8.41,-12.39,-12.43,0,*51
1484481725.54,38786,4.88,72308.5,-8.39,-12.29,-12.29,0,*50
1484481726.75,38787,4.88,72312.5,-8.41,-12.25,-12.39,0,*53
1484481727.99,38788,4.88,72310.5,-8.39,-12.25,-12.39,0,*53
1484481729.22,38789,4.88,72314.0,-8.41,-12.43,-12.53,0,*51
1484481730.46,38790,4.88,72308.8,-8.39,-12.39,-12.43,0,*5A
1484481731.69,38791,4.88,72312.8,-8.39,-12.39,-12.39,0,*56
1484481732.9,38792,4.88,72310.0,-8.41,-12.25,-12.29,0,*56
1484481734.14,38793,4.88,72310.3,-8.39,-12.29,-12.39,0,*55
1484481735.4,38794,4.88,72312.0,-8.39,-12.43,-12.57,0,*56
1484481736.67,38795,4.88,72312.5,-8.39,-12.57,-12.65,0,*53
1484481737.95,38796,4.88,72308.8,-8.39,-12.65,-12.65,0,*51
1484481739.23,38797,4.88,72312.5,-8.39,-12.65,-12.65,0,*50
1484481740.49,38798,4.88,72312.5,-8.39,-12.43,-12.57,0,*5A
1484481741.74,38799,4.88,72312.8,-8.39,-12.43,-12.57,0,*5B
1484481743.03,38800,4.88,72314.3,-8.39,-12.53,-12.53,0,*51
1484481744.29,38801,4.88,72312.0,-8.41,-12.53,-12.65,0,*5A
1484481745.57,38802,4.88,72314.8,-8.39,-12.57,-12.65,0,*52
1484481746.85,38803,4.88,72312.8,-8.39,-12.53,-12.57,0,*56
1484481748.08,38804,4.88,72308.3,-8.39,-12.39,-12.43,0,*58
1484481749.34,38805,4.88,72310.8,-8.39,-12.43,-12.53,0,*55
1484481750.55,38806,4.88,72314.5,-8.37,-12.39,-12.47,0,*50
1484481751.76,38807,4.88,72308.8,-8.37,-12.39,-12.47,0,*51
1484481752.97,38808,4.88,72314.0,-8.37,-12.39,-12.47,0,*5E
1484481754.18,38809,4.94,72314.8,-8.37,-12.25,-12.39,0,*5B
1484481755.4,38810,4.94,72314.3,-8.37,-12.21,-12.25,0,*5A
1484481756.66,38811,4.88,72314.8,-8.37,-12.11,-12.11,0,*5F
1484481757.9,38812,4.94,72316.5,-8.37,-12.11,-12.21,0,*5F
1484481759.16,38813,4.88,72312.8,-8.35,-12.11,-12.21,0,*5C
1484481760.4,38814,4.88,72314.8,-8.37,-12.11,-12.25,0,*5D
1484481761.66,38815,4.88,72314.3,-8.37,-12.35,-12.35,0,*5B
1484481762.9,38816,4.88,72312.3,-8.35,-12.21,-12.25,0,*5E
1484481764.16,38817,4.88,72308.8,-8.37,-12.53,-12.65,0,*5C
1484481765.43,38818,4.88,72312.0,-8.35,-12.75,-12.97,0,*58
1484481766.64,38819,4.88,72310.8,-8.37,-12.97,-13.11,0,*58
1484481767.88,38820,4.88,72314.5,-8.33,-13.01,-13.19,0,*50
1484481769.11,38821,4.88,72310.3,-8.37,-13.23,-13.37,0,*59
1484481770.37,38822,4.88,72314.3,-8.35,-13.33,-13.51,0,*59
1484481771.6,38823,4.94,72312.8,-8.35,-13.47,-13.65,0,*5C
1484481772.81,38824,4.94,72318.3,-8.37,-13.51,-13.65,0,*5E
1484481774.03,38825,4.94,72314.0,-8.37,-13.51,-13.65,0,*5F
1484481775.26,38826,4.94,72314.0,-8.37,-13.47,-13.61,0,*5F
1484481776.49,38827,4.88,72314.3,-8.37,-13.37,-13.47,0,*5D
1484481777.72,38828,4.94,72316.0,-8.37,-13.23,-13.37,0,*50
1484481778.93,38829,4.94,72316.3,-8.37,-13.11,-13.11,0,*54
1484481780.14,38830,4.88,72312.8,-8.37,-12.97,-13.07,0,*54
1484481781.35,38831,4.88,72312.5,-8.37,-12.93,-13.07,0,*51
1484481782.55,38832,4.94,72318.8,-8.37,-13.07,-13.11,0,*59
1484481783.76,38833,4.94,72318.3,-8.37,-13.07,-13.11,0,*58
1484481784.97,38834,4.94,72316.8,-8.37,-13.07,-13.07,0,*58
1484481786.2,38835,4.94,72318.0,-8.37,-12.83,-12.97,0,*5C
1484481787.46,38836,4.94,72314.3,-8.35,-12.83,-12.93,0,*59
1484481788.72,38837,4.88,72312.0,-8.35,-12.83,-12.93,0,*58
1484481789.95,38838,4.88,72314.8,-8.37,-12.79,-12.93,0,*50
1484481791.22,38839,4.94,72314.5,-8.37,-12.75,-12.79,0,*59
1484481792.48,38840,4.94,72312.5,-8.37,-12.65,-12.75,0,*5A
1484481793.74,38841,4.94,72312.8,-8.37,-12.61,-12.79,0,*53
1484481795.02,38842,4.88,72308.8,-8.35,-12.61,-12.65,0,*5F
1484481796.27,38843,4.94,72314.3,-8.37,-12.61,-12.65,0,*5C
1484481797.51,38844,4.94,72312.0,-8.37,-12.47,-12.53,0,*5A
1484481798.75,38845,4.88,72310.8,-8.37,-12.47,-12.53,0,*5B
1484481799.98,38846,4.94,72312.5,-8.37,-12.47,-12.53,0,*58
1484481801.25,38847,4.88,72310.3,-8.35,-12.47,-12.53,0,*5B
1484481802.48,38848,4.94,72314.0,-8.37,-12.39,-12.53,0,*5F
1484481803.77,38849,4.88,72312.5,-8.35,-12.35,-12.61,0,*51
1484481805.03,38850,4.94,72314.3,-8.35,-12.39,-12.53,0,*54
1484481806.29,38851,4.94,72312.5,-8.35,-12.47,-12.53,0,*5C
1484481807.55,38852,4.94,72314.5,-8.35,-12.47,-12.53,0,*5F
1484481808.82,38853,4.94,72312.8,-8.35,-12.39,-12.53,0,*57
1484481810.08,38854,4.94,72312.0,-8.35,-12.35,-12.39,0,*50
1484481811.34,38855,4.88,72310.0,-8.35,-12.35,-12.39,0,*51
1484481812.58,38856,4.94,72312.5,-8.35,-12.25,-12.39,0,*53
1484481813.82,38857,4.94,72316.0,-8.33,-12.07,-12.21,0,*5D
1484481815.08,38858,4.94,72314.0,-8.33,-12.07,-12.15,0,*55
1484481816.29,38859,4.94,72316.8,-8.33,-12.03,-12.21,0,*57
1484481817.53,38860,4.94,72314.3,-8.29,-12.07,-12.21,0,*52
1484481818.75,38861,4.94,72314.8,-8.29,-12.21,-12.43,0,*53
1484481819.97,38862,4.94,72312.8,-8.29,-12.29,-12.47,0,*5C
1484481821.23,38863,4.88,72310.5,-8.29,-12.35,-12.57,0,*51
1484481822.47,38864,4.94,72312.3,-8.33,-12.35,-12.43,0,*58
1484481823.68,38865,4.94,72312.3,-8.33,-12.29,-12.43,0,*54
1484481824.9,38866,4.94,72314.5,-8.33,-12.21,-12.43,0,*5F
1484481826.14,38867,4.94,72312.5,-8.29,-12.15,-12.21,0,*56
1484481827.38,38868,4.94,72314.3,-8.33,-12.15,-12.21,0,*52
1484481828.61,38869,4.94,72310.0,-8.33,-12.03,-12.15,0,*53
1484481829.85,38870,4.94,72312.3,-8.29,-12.03,-12.07,0,*53
1484481831.1,38871,4.94,72314.8,-8.27,-11.97,-12.03,0,*56
1484481832.39,38872,4.94,72314.5,-8.27,-11.89,-11.97,0,*54
1484481833.67,38873,4.94,72312.0,-8.27,-11.81,-11.97,0,*5D
1484481834.95,38874,4.94,72312.8,-8.27,-11.89,-11.97,0,*52
1484481836.18,38875,4.94,72314.5,-8.25,-11.97,-12.03,0,*50
1484481837.46,38876,4.94,72314.8,-8.27,-12.11,-12.15,0,*5B
1484481838.7,38877,4.94,72318.8,-8.25,-12.15,-12.39,0,*52
1484481839.94,38878,4.94,72316.8,-8.27,-12.29,-12.39,0,*50
1484481841.19,38879,4.88,72314.5,-8.27,-12.43,-12.53,0,*51
1484481842.43,38880,4.94,72318.3,-8.25,-12.43,-12.53,0,*55
1484481843.68,38881,4.94,72316.3,-8.27,-12.43,-12.57,0,*52
1484481844.91,38882,4.94,72314.8,-8.25,-12.43,-12.57,0,*53
1484481846.14,38883,4.94,72312.3,-8.25,-12.43,-12.57,0,*52
1484481847.37,38884,4.88,72310.8,-8.25,-12.43,-12.57,0,*55
1484481848.61,38885,4.88,72310.3,-8.25,-12.43,-12.53,0,*50
1484481849.81,38886,4.94,72312.3,-8.25,-12.43,-12.43,0,*52
1484481851.02,38887,4.94,72312.0,-8.25,-12.39,-12.43,0,*5E
1484481852.23,38888,4.94,72314.0,-8.25,-12.25,-12.39,0,*51
1484481853.45,38889,4.94,72314.5,-8.25,-12.25,-12.29,0,*51
1484481854.71,38890,4.94,72312.0,-8.23,-12.07,-12.21,0,*57
1484481856.0,38891,4.94,72312.8,-8.23,-11.97,-12.11,0,*5F
1484481857.29,38892,4.94,72314.0,-8.23,-11.93,-12.07,0,*5F
1484481858.58,38893,4.94,72312.8,-8.23,-11.93,-11.97,0,*54
1484481859.85,38894,4.94,72312.8,-8.21,-11.85,-11.93,0,*52
1484481861.11,38895,4.94,72312.0,-8.21,-11.85,-11.97,0,*57
1484481862.4,38896,4.94,72316.5,-8.23,-11.97,-12.07,0,*5F
1484481863.64,38897,4.94,72312.0,-8.21,-12.11,-12.25,0,*51
1484481864.87,38898,4.94,72312.0,-8.21,-12.35,-12.47,0,*5C
1484481866.11,38899,4.94,72312.5,-8.21,-12.47,-12.61,0,*5C
1484481867.37,38900,4.94,72314.3,-8.21,-12.71,-12.83,0,*54
1484481868.59,38901,4.94,72312.3,-8.21,-13.07,-13.19,0,*57
1484481869.82,38902,4.94,72314.0,-8.19,-12.93,-13.07,0,*5C
1484481871.08,38903,4.94,72312.3,-8.19,-12.79,-12.89,0,*5E
1484481872.35,38904,4.94,72312.8,-8.21,-12.79,-12.79,0,*5D
1484481873.61,38905,4.94,72314.8,-8.21,-12.71,-12.83,0,*51
1484481874.88,38906,4.94,72312.5,-8.21,-12.71,-12.79,0,*57
1484481876.14,38907,4.94,72312.5,-8.21,-12.61,-12.71,0,*5F
1484481877.4,38908,4.88,72308.8,-8.21,-12.61,-12.65,0,*55
1484481878.68,38909,4.94,72312.0,-8.19,-12.61,-12.75,0,*5E
1484481879.97,38910,4.94,72314.3,-8.19,-12.65,-12.75,0,*52
1484481881.25,38911,4.94,72314.5,-8.19,-12.61,-12.79,0,*5B
1484481882.54,38912,4.94,72312.8,-8.19,-12.57,-12.75,0,*51
1484481883.82,38913,4.94,72314.3,-8.19,-12.61,-12.65,0,*54
1484481885.1,38914,4.94,72312.8,-8.19,-12.61,-12.75,0,*52
1484481886.39,38915,4.94,72312.3,-8.19,-12.75,-12.79,0,*5A
1484481887.66,38916,4.94,72314.0,-8.19,-13.01,-13.19,0,*5C
1484481888.89,38917,4.94,72310.5,-8.19,-13.43,-13.51,0,*57
1484481890.12,38918,4.94,72310.8,-8.17,-13.33,-13.51,0,*51
1484481891.35,38919,4.94,72308.8,-8.19,-13.19,-13.43,0,*55
1484481892.59,38920,4.94,72310.0,-8.19,-13.15,-13.19,0,*5C
1484481893.85,38921,4.94,72310.8,-8.19,-13.01,-13.15,0,*54
1484481895.1,38922,4.94,72310.8,-8.19,-12.93,-13.01,0,*58
1484481896.36,38923,4.94,72308.8,-8.19,-12.89,-13.01,0,*52
1484481897.62,38924,4.94,72310.5,-8.19,-12.79,-12.89,0,*5B
1484481898.85,38925,4.94,72310.8,-8.17,-12.75,-12.89,0,*58
1484481900.1,38926,4.94,72310.3,-8.17,-13.01,-13.19,0,*51
1484481901.36,38927,4.94,72310.3,-8.19,-13.19,-13.29,0,*54
1484481902.59,38928,4.94,72310.5,-8.17,-13.19,-13.29,0,*55
1484481903.82,38929,4.94,72310.5,-8.19,-13.07,-13.15,0,*5A
1484481905.06,38930,4.94,72308.8,-8.19,-12.93,-12.93,0,*51
1484481906.32,38931,4.94,72310.0,-8.17,-12.65,-12.75,0,*5F
1484481907.58,38932,4.94,72314.0,-8.19,-12.43,-12.57,0,*56
1484481908.78,38933,4.94,72308.8,-8.17,-12.43,-12.47,0,*58
1484481910.03,38934,4.94,72310.3,-8.17,-12.21,-12.35,0,*5E
1484481911.29,38935,4.94,72310.0,-8.17,-11.81,-11.93,0,*59
1484481912.55,38936,4.94,72312.5,-8.17,-11.89,-11.93,0,*52
1484481913.79,38937,4.94,72312.0,-8.17,-11.81,-12.03,0,*51
1484481915.08,38938,4.94,72312.0,-8.15,-11.77,-11.89,0,*54
1484481916.34,38939,4.94,72314.8,-8.13,-11.67,-11.85,0,*5E
1484481917.62,38940,4.94,72312.8,-8.15,-11.73,-11.85,0,*53
1484481918.91,38941,4.94,72314.0,-8.15,-12.11,-12.15,0,*5F
1484481920.13,38942,4.94,72308.8,-8.13,-12.25,-12.39,0,*53
1484481921.39,38943,4.94,72312.0,-8.15,-12.39,-12.53,0,*55
1484481922.66,38944,4.94,72312.0,-8.13,-12.53,-12.61,0,*59
1484481923.92,38945,4.94,72310.5,-8.13,-12.53,-12.57,0,*5D
1484481925.18,38946,4.94,72308.8,-8.13,-12.53,-12.57,0,*5E
1484481926.39,38947,4.94,72310.5,-8.13,-12.39,-12.43,0,*56
1484481927.6,38948,4.94,72308.0,-8.13,-12.39,-12.43,0,*59
1484481928.81,38949,4.94,72308.5,-8.13,-12.29,-12.29,0,*55
1484481930.03,38950,4.94,72312.0,-8.13,-12.25,-12.39,0,*50
1484481931.24,38951,4.94,72308.5,-8.13,-12.25,-12.39,0,*51
1484481932.46,38952,4.94,72308.8,-8.13,-12.25,-12.29,0,*53
1484481933.67,38953,4.94,72310.8,-8.13,-12.29,-12.39,0,*5F
1484481934.91,38954,4.94,72312.5,-8.11,-12.25,-12.25,0,*5B
1484481936.18,38955,4.94,72308.3,-8.11,-12.11,-12.25,0,*5D
1484481937.44,38956,4.94,72314.0,-8.11,-12.25,-12.35,0,*58
1484481938.66,38957,4.94,72310.3,-8.13,-12.29,-12.39,0,*5B
1484481939.87,38958,4.94,72308.0,-8.13,-12.29,-12.43,0,*59
1484481941.11,38959,4.94,72308.8,-8.11,-12.39,-12.47,0,*5F
1484481942.37,38960,4.94,72312.3,-8.11,-12.35,-12.47,0,*59
1484481943.61,38961,4.94,72308.3,-8.07,-12.29,-12.47,0,*52
1484481944.85,38962,4.94,72310.8,-8.11,-12.39,-12.39,0,*5E
1484481946.11,38963,4.94,72312.0,-8.11,-12.35,-12.39,0,*53
1484481947.37,38964,4.94,72312.3,-8.11,-12.35,-12.47,0,*5D
1484481948.61,38965,4.94,72308.0,-8.11,-12.39,-12.39,0,*59
1484481949.84,38966,4.94,72310.3,-8.11,-12.39,-12.47,0,*53
1484481951.13,38967,4.94,72310.0,-8.11,-12.35,-12.53,0,*5B
1484481952.42,38968,4.94,72310.5,-8.11,-12.71,-12.79,0,*5C
1484481953.67,38969,4.94,72310.0,-8.11,-13.07,-13.19,0,*5A
1484481954.93,38970,4.94,72314.5,-8.11,-13.19,-13.33,0,*55
1484481956.19,38971,4.94,72310.8,-8.07,-13.15,-13.29,0,*54
1484481957.45,38972,4.94,72310.3,-8.11,-12.79,-12.97,0,*5F
1484481958.71,38973,4.94,72312.8,-8.11,-12.83,-12.97,0,*5B
1484481959.97,38974,4.94,72308.5,-8.11,-12.71,-12.93,0,*55
1484481961.26,38975,4.94,72306.8,-8.11,-12.71,-12.79,0,*50
1484481962.55,38976,4.94,72306.0,-8.11,-12.57,-12.71,0,*5F
1484481963.84,38977,4.94,72310.3,-8.07,-12.53,-12.61,0,*5C
1484481965.12,38978,4.94,72308.0,-8.11,-12.57,-12.65,0,*54
1484481966.41,38979,4.94,72308.3,-8.11,-12.53,-12.65,0,*51
1484481967.64,38980,4.94,72314.8,-8.11,-12.39,-12.39,0,*52
1484481968.91,38981,4.94,72308.3,-8.11,-12.11,-12.25,0,*54
1484481970.18,38982,4.94,72314.0,-8.11,-12.21,-12.35,0,*55
1484481971.46,38983,4.94,72308.5,-8.11,-11.97,-12.11,0,*5C
1484481972.75,38984,4.94,72304.8,-8.11,-11.97,-12.11,0,*5B
1484481974.02,38985,4.94,72310.0,-8.11,-12.11,-12.21,0,*54
1484481975.28,38986,4.94,72306.8,-8.11,-12.11,-12.25,0,*53
1484481976.53,38987,4.94,72308.3,-8.07,-12.21,-12.29,0,*5A
1484481977.8,38988,4.94,72310.3,-8.07,-12.21,-12.35,0,*58
1484481979.07,38989,4.94,72312.0,-8.07,-12.21,-12.35,0,*59
1484481980.33,38990,4.94,72308.5,-8.07,-12.35,-12.47,0,*51
1484481981.6,38991,4.94,72314.5,-8.11,-12.39,-12.53,0,*5E
1484481982.88,38992,4.94,72310.0,-8.11,-12.53,-12.57,0,*55
1484481984.12,38993,4.94,72314.0,-8.07,-12.47,-12.47,0,*57
1484481985.36,38994,4.94,72312.0,-8.07,-12.47,-12.47,0,*50
1484481986.65,38995,4.94,72308.8,-8.11,-12.53,-12.53,0,*56
1484481987.89,38996,4.94,72312.8,-8.07,-12.43,-12.47,0,*56
1484481989.15,38997,4.94,72314.8,-8.11,-12.47,-12.53,0,*51
1484481990.44,38998,4.94,72312.3,-8.11,-12.57,-12.71,0,*5F
1484481991.68,38999,4.94,72314.0,-8.11,-13.07,-13.11,0,*5D
1484481992.94,39000,4.94,72314.8,-8.11,-13.23,-13.37,0,*57
1484481994.18,39001,4.94,72310.0,-8.07,-13.51,-13.73,0,*54
1484481995.44,39002,4.94,72312.0,-8.11,-13.83,-13.93,0,*51
1484481996.72,39003,4.94,72314.3,-8.11,-13.79,-13.83,0,*54
1484481997.98,39004,4.94,72310.0,-8.11,-13.65,-13.83,0,*5E
1484481999.18,39005,4.94,72312.3,-8.13,-13.65,-13.69,0,*59
1484482000.41,39006,4.94,72312.5,-8.13,-13.73,-13.83,0,*59
1484482001.64,39007,4.94,72314.5,-8.13,-13.73,-13.87,0,*5C
1484482002.87,39008,4.94,72314.8,-8.13,-13.69,-13.83,0,*5C
1484482004.11,39009,4.94,72310.5,-8.13,-13.55,-13.61,0,*5E
1484482005.34,39010,5.0,72314.5,-8.13,-13.37,-13.47,0,*56
1484482006.6,39011,4.94,72314.5,-8.15,-13.23,-13.29,0,*5C
1484482007.84,39012,4.94,72312.3,-8.15,-13.15,-13.23,0,*50
1484482009.08,39013,4.94,72310.5,-8.15,-13.11,-13.15,0,*50
1484482010.31,39014,4.94,72308.3,-8.13,-13.01,-13.11,0,*54
1484482011.54,39015,4.94,72314.0,-8.13,-12.83,-12.97,0,*51
1484482012.8,39016,4.94,72308.3,-8.13,-12.83,-12.83,0,*57
1484482014.09,39017,4.94,72310.8,-8.15,-12.75,-12.83,0,*59
1484482015.35,39018,4.94,72310.3,-8.13,-12.71,-12.83,0,*54
1484482016.61,39019,4.94,72310.3,-8.13,-12.61,-12.83,0,*54
1484482017.87,39020,4.94,72308.3,-8.13,-12.61,-12.71,0,*53
1484482019.14,39021,4.94,72312.3,-8.13,-12.57,-12.71,0,*57
1484482020.44,39022,4.94,72308.8,-8.15,-12.53,-12.53,0,*56
1484482021.67,39023,4.94,72312.3,-8.13,-12.43,-12.53,0,*50
1484482022.88,39024,5.0,72314.0,-8.13,-12.39,-12.43,0,*5B
1484482024.09,39025,4.94,72314.5,-8.13,-12.39,-12.43,0,*5A
1484482025.3,39026,4.94,72314.8,-8.13,-12.25,-12.43,0,*54
1484482026.54,39027,4.94,72314.3,-8.13,-12.15,-12.29,0,*5A
1484482027.78,39028,4.94,72308.5,-8.13,-12.15,-12.29,0,*55
1484482029.04,39029,4.94,72310.0,-8.11,-12.07,-12.21,0,*5D
1484482030.33,39030,4.94,72310.5,-8.11,-12.07,-12.11,0,*56
1484482031.6,39031,5.0,72314.3,-8.13,-11.97,-12.11,0,*5F
1484482032.83,39032,4.94,72308.5,-8.13,-11.97,-12.03,0,*5F
1484482034.12,39033,4.94,72310.5,-8.11,-11.85,-11.97,0,*51
1484482035.4,39034,4.94,72310.3,-8.07,-11.77,-11.89,0,*53
1484482036.69,39035,4.94,72312.5,-8.07,-11.77,-11.81,0,*5A
1484482037.97,39036,4.94,72308.8,-8.07,-11.77,-11.77,0,*50
1484482039.25,39037,4.94,72310.3,-8.07,-11.67,-11.81,0,*59
1484482040.53,39038,4.94,72304.5,-8.11,-11.73,-11.81,0,*54
1484482041.82,39039,4.94,72308.5,-8.07,-11.63,-11.67,0,*5B
1484482043.11,39040,4.94,72310.3,-8.11,-11.67,-11.73,0,*53
1484482044.4,39041,4.94,72304.8,-8.07,-11.59,-11.67,0,*5D
1484482045.66,39042,4.94,72308.0,-8.05,-11.63,-11.67,0,*55
1484482046.93,39043,4.94,72312.3,-8.05,-11.67,-11.67,0,*50
1484482048.21,39044,4.94,72306.8,-8.07,-11.63,-11.81,0,*59
1484482049.5,39045,4.94,72310.5,-8.07,-11.51,-11.67,0,*51
1484482050.76,39046,4.94,72310.0,-8.07,-11.51,-11.45,0,*52
1484482052.02,39047,4.94,72310.0,-8.07,-11.45,-11.51,0,*53
1484482053.24,39048,4.94,72308.5,-8.05,-11.45,-11.45,0,*5B
1484482054.48,39049,4.94,72310.3,-8.03,-11.45,-11.45,0,*5C
1484482055.77,39050,4.94,72308.3,-8.03,-11.37,-11.37,0,*54
1484482057.05,39051,4.94,72304.8,-8.03,-11.37,-11.37,0,*55
1484482058.28,39052,4.94,72308.5,-8.05,-11.37,-11.45,0,*55
1484482059.54,39053,4.94,72308.5,-8.05,-11.51,-11.51,0,*51
1484482060.81,39054,4.94,72308.8,-8.05,-11.59,-11.63,0,*5F
1484482062.09,39055,4.94,72310.3,-8.03,-11.63,-11.67,0,*55
1484482063.39,39056,5.0,72310.5,-8.03,-11.63,-11.67,0,*56
1484482064.67,39057,4.94,72308.8,-8.03,-11.63,-11.77,0,*56
1484482065.95,39058,4.94,72308.8,-8.03,-11.77,-11.81,0,*55
1484482067.24,39059,4.94,72308.3,-7.99,-11.77,-11.85,0,*5C
1484482068.53,39060,4.94,72308.3,-7.99,-11.85,-11.97,0,*58
1484482069.77,39061,4.94,72306.5,-8.01,-12.03,-12.11,0,*57
1484482071.0,39062,5.0,72312.5,-8.01,-12.11,-12.25,0,*50
1484482072.27,39063,5.0,72312.5,-7.99,-12.15,-12.25,0,*5B
1484482073.54,39064,4.94,72310.8,-7.99,-12.11,-12.25,0,*58
1484482074.82,39065,4.94,72310.0,-7.99,-11.97,-12.11,0,*53
1484482076.06,39066,4.94,72312.3,-8.01,-11.97,-12.03,0,*5D
1484482077.3,39067,4.94,72310.0,-8.01,-11.97,-12.03,0,*5C
1484482078.57,39068,4.94,72310.8,-7.99,-11.85,-12.03,0,*5E
1484482079.86,39069,4.94,72310.8,-7.99,-11.85,-11.89,0,*5E
1484482081.12,39070,4.94,72310.8,-8.01,-11.73,-11.85,0,*5D
1484482082.4,39071,4.94,72310.0,-7.99,-11.73,-11.73,0,*5B
1484482083.7,39072,5.0,72314.0,-7.99,-11.59,-11.63,0,*51
1484482084.97,39073,5.0,72312.3,-7.99,-11.45,-11.59,0,*54
1484482086.24,39074,4.94,72308.3,-7.99,-11.45,-11.59,0,*53
1484482087.46,39075,4.94,72310.3,-7.97,-11.41,-11.41,0,*51
1484482088.69,39076,5.0,72312.8,-7.97,-11.37,-11.41,0,*53
1484482089.97,39077,5.0,72312.5,-7.95,-11.33,-11.33,0,*51
1484482091.25,39078,5.0,72314.3,-7.95,-11.37,-11.51,0,*5E
1484482092.51,39079,4.94,72310.5,-7.97,-11.55,-11.67,0,*5C
1484482093.77,39080,4.94,72314.0,-7.97,-11.67,-11.73,0,*5E
1484482095.05,39081,5.0,72312.8,-7.95,-11.67,-11.77,0,*59
1484482096.33,39082,5.0,72314.3,-7.95,-11.77,-11.81,0,*52
1484482097.61,39083,5.0,72314.3,-7.95,-11.67,-11.85,0,*56
1484482098.9,39084,4.94,72312.0,-7.95,-11.67,-11.77,0,*5C
1484482100.18,39085,4.94,72314.0,-7.95,-11.67,-11.81,0,*54
1484482101.43,39086,5.0,72312.0,-7.93,-11.77,-11.81,0,*50
1484482102.68,39087,5.0,72314.8,-7.93,-11.77,-11.77,0,*58
1484482103.96,39088,5.0,72312.0,-7.95,-11.63,-11.77,0,*54
1484482105.25,39089,4.94,72314.0,-7.91,-11.59,-11.73,0,*5C
1484482106.51,39090,5.0,72316.5,-7.93,-11.55,-11.67,0,*5F
1484482107.75,39091,5.0,72314.0,-7.91,-11.45,-11.45,0,*5D
1484482109.01,39092,5.0,72314.0,-7.93,-11.51,-11.55,0,*58